ACA12 CYUL-CYYC

Flight info

Callsign ACA12
Flight time N/A
Altitude 36000
Route DCT KESKA DCT BIPKO DCT IPSAK DCT OMEGI DCT RADEN DCT SPALD DCT LACTO DCT LEATS/N0451F360 DCT ILADA BIRKO6
Aircraft A321/M-SDE3FGHIRWY/LB1

Departure

Time N/A
Airport Montreal / Pierre Elliott Trudeau International Airport (CYUL)

Arrival

Time 2026-05-06 02:09
Airport Calgary International Airport (CYYC)
Time Latitude Longitude Altitude Speed Heading
2026-05-06 01:48 51.41443 -112.29883 28682 ft 391 kts 288°
2026-05-06 01:48 51.41732 -112.34191 28213 ft 387 kts 288°
2026-05-06 01:49 51.42019 -112.38444 27746 ft 382 kts 288°
2026-05-06 01:49 51.42301 -112.42657 27288 ft 378 kts 288°
2026-05-06 01:49 51.42578 -112.46812 26845 ft 373 kts 288°
2026-05-06 01:49 51.42851 -112.50928 26419 ft 369 kts 288°
2026-05-06 01:50 51.43118 -112.54984 25993 ft 365 kts 288°
2026-05-06 01:50 51.43378 -112.58950 25574 ft 361 kts 288°
2026-05-06 01:50 51.43641 -112.62921 25126 ft 357 kts 287°
2026-05-06 01:50 51.43893 -112.66845 24777 ft 353 kts 287°
2026-05-06 01:51 51.44155 -112.70822 24372 ft 363 kts 287°
2026-05-06 01:51 51.44428 -112.74861 23964 ft 365 kts 287°
2026-05-06 01:51 51.44692 -112.78909 23500 ft 364 kts 287°
2026-05-06 01:51 51.44944 -112.82936 23066 ft 363 kts 286°
2026-05-06 01:52 51.45188 -112.86948 22647 ft 361 kts 286°
2026-05-06 01:52 51.45428 -112.90940 22222 ft 359 kts 286°
2026-05-06 01:52 51.45663 -112.94865 21807 ft 357 kts 286°
2026-05-06 01:52 51.45903 -112.98815 21368 ft 355 kts 286°
2026-05-06 01:53 51.46146 -113.02747 20950 ft 354 kts 286°
2026-05-06 01:53 51.46391 -113.06662 20526 ft 352 kts 287°
2026-05-06 01:53 51.46633 -113.10574 20084 ft 351 kts 286°
2026-05-06 01:53 51.46868 -113.14450 19664 ft 349 kts 287°
2026-05-06 01:54 51.47103 -113.18325 19201 ft 348 kts 286°
2026-05-06 01:54 51.47220 -113.22211 18806 ft 355 kts 277°
2026-05-06 01:54 51.46769 -113.26184 18224 ft 373 kts 261°
2026-05-06 01:54 51.45642 -113.29966 17687 ft 388 kts 244°
2026-05-06 01:55 51.43956 -113.33396 17208 ft 393 kts 237°
2026-05-06 01:55 51.42209 -113.36738 16715 ft 391 kts 237°
2026-05-06 01:55 51.40472 -113.40065 16214 ft 385 kts 237°
2026-05-06 01:55 51.38774 -113.43303 15746 ft 374 kts 237°
2026-05-06 01:56 51.37120 -113.46457 15279 ft 365 kts 237°
2026-05-06 01:56 51.35511 -113.49543 14827 ft 360 kts 237°
2026-05-06 01:56 51.33918 -113.52617 14368 ft 357 kts 236°
2026-05-06 01:56 51.32349 -113.55636 13883 ft 348 kts 236°
2026-05-06 01:57 51.30812 -113.58577 13410 ft 343 kts 236°
2026-05-06 01:57 51.29290 -113.61483 13002 ft 340 kts 236°
2026-05-06 01:57 51.27800 -113.64331 12590 ft 337 kts 236°
2026-05-06 01:57 51.26307 -113.67190 12171 ft 334 kts 236°
2026-05-06 01:58 51.24823 -113.70033 11739 ft 332 kts 236°
2026-05-06 01:58 51.23344 -113.72859 11311 ft 330 kts 235°
2026-05-06 01:58 51.21872 -113.75660 10881 ft 329 kts 235°
2026-05-06 01:58 51.20406 -113.78442 10458 ft 327 kts 234°
2026-05-06 01:59 51.18967 -113.81132 10275 ft 309 kts 232°
2026-05-06 01:59 51.17339 -113.83254 9944 ft 307 kts 213°
2026-05-06 01:59 51.15370 -113.84539 9648 ft 309 kts 197°
2026-05-06 01:59 51.13231 -113.84888 8942 ft 307 kts 180°
2026-05-06 02:00 51.11119 -113.84872 8365 ft 295 kts 180°
2026-05-06 02:00 51.09137 -113.84854 8200 ft 274 kts 180°
2026-05-06 02:00 51.07301 -113.84845 8135 ft 254 kts 180°
2026-05-06 02:00 51.05570 -113.84843 7973 ft 243 kts 180°
2026-05-06 02:01 51.03932 -113.84849 7886 ft 227 kts 180°
2026-05-06 02:01 51.02419 -113.84859 7768 ft 209 kts 180°
2026-05-06 02:01 51.00997 -113.84867 7670 ft 200 kts 180°
2026-05-06 02:01 50.99664 -113.84874 7589 ft 190 kts 180°
2026-05-06 02:02 50.98351 -113.84885 7508 ft 188 kts 180°
2026-05-06 02:02 50.97045 -113.84896 7424 ft 188 kts 180°
2026-05-06 02:02 50.95739 -113.84942 7327 ft 187 kts 188°
2026-05-06 02:02 50.94621 -113.85862 7218 ft 182 kts 231°
2026-05-06 02:03 50.94128 -113.87662 7136 ft 180 kts 262°
2026-05-06 02:03 50.93969 -113.89622 7039 ft 179 kts 267°
2026-05-06 02:03 50.93871 -113.91584 6965 ft 177 kts 268°
2026-05-06 02:03 50.93787 -113.93522 6861 ft 176 kts 269°
2026-05-06 02:04 50.93938 -113.95390 6856 ft 173 kts 291°
2026-05-06 02:04 50.94491 -113.97054 6809 ft 170 kts 311°
2026-05-06 02:04 50.95329 -113.98254 6709 ft 158 kts 330°
2026-05-06 02:04 50.96326 -113.98919 6563 ft 155 kts 349°
2026-05-06 02:05 50.97392 -113.99056 6377 ft 153 kts
2026-05-06 02:05 50.98456 -113.99054 6171 ft 153 kts
2026-05-06 02:05 50.99518 -113.99053 5960 ft 152 kts
2026-05-06 02:05 51.00576 -113.99052 5749 ft 152 kts
2026-05-06 02:06 51.01635 -113.99050 5529 ft 152 kts
2026-05-06 02:06 51.02692 -113.99049 5331 ft 151 kts
2026-05-06 02:06 51.03723 -113.99047 5128 ft 150 kts
2026-05-06 02:06 51.04769 -113.99046 4925 ft 151 kts
2026-05-06 02:07 51.05815 -113.99044 4712 ft 150 kts
2026-05-06 02:07 51.06860 -113.99042 4498 ft 150 kts
2026-05-06 02:07 51.07900 -113.99040 4267 ft 150 kts
2026-05-06 02:07 51.08948 -113.99039 4036 ft 151 kts
2026-05-06 02:08 51.09999 -113.99050 3827 ft 151 kts
2026-05-06 02:08 51.11044 -113.99056 3613 ft 150 kts
2026-05-06 02:08 51.11992 -113.99032 3560 ft 109 kts 360°
2026-05-06 02:08 51.12566 -113.99029 3564 ft 65 kts
2026-05-06 02:09 51.12941 -113.99062 3563 ft 36 kts 345°
2026-05-06 02:09 51.13087 -113.99189 3562 ft 11 kts 332°
2026-05-06 02:09 51.13153 -113.99248 3559 ft 10 kts 326°
2026-05-06 02:09 51.13162 -113.99335 3560 ft 8 kts 270°
2026-05-06 02:10 51.13160 -113.99425 3560 ft 8 kts 268°
2026-05-06 02:10 51.13158 -113.99533 3560 ft 12 kts 261°
2026-05-06 02:10 51.13111 -113.99639 3555 ft 13 kts 218°
2026-05-06 02:10 51.13092 -113.99662 3560 ft 0 kts 218°
2026-05-06 02:15 51.13096 -113.99659 3560 ft 0 kts 218°
2026-05-06 02:16 51.13096 -113.99657 3561 ft 0 kts 197°
2026-05-06 02:17 51.13101 -113.99774 3560 ft 0 kts 180°